Time,TemperatureF,DewpointF,PressureIn,WindDirection,WindDirectionDegrees,WindSpeedMPH,WindSpeedGustMPH,Humidity,HourlyPrecipIn,Conditions,Clouds,dailyrainin,SoftwareType,DateUTC
2013-03-22 00:02:00,29.5,23.5,28.34,NW,315,7.0,7.0,78,-99.99,,,-99.99,meteohub,2013-03-21 23:02:00,
2013-03-22 00:17:00,29.3,23.4,28.34,NNW,338,4.0,7.0,78,-99.99,,,-99.99,meteohub,2013-03-21 23:17:00,
2013-03-22 00:32:00,29.3,23.4,28.34,NW,315,6.0,8.0,78,-99.99,,,-99.99,meteohub,2013-03-21 23:32:00,
2013-03-22 00:47:00,28.9,23.2,28.34,NW,315,7.0,8.0,79,-99.99,,,-99.99,meteohub,2013-03-21 23:47:00,
2013-03-22 01:02:00,28.9,23.2,28.34,NW,315,4.0,7.0,79,-99.99,,,-99.99,meteohub,2013-03-22 00:02:00,
2013-03-22 01:17:00,28.9,23.0,28.33,NW,315,6.0,8.0,78,-99.99,,,-99.99,meteohub,2013-03-22 00:17:00,
2013-03-22 01:32:00,28.9,23.0,28.32,NW,315,5.0,7.0,78,-99.99,,,-99.99,meteohub,2013-03-22 00:32:00,
2013-03-22 01:47:00,28.9,22.6,28.32,NW,315,4.0,8.0,77,-99.99,,,-99.99,meteohub,2013-03-22 00:47:00,
2013-03-22 02:02:00,28.9,22.6,28.32,NW,315,7.0,7.0,77,-99.99,,,-99.99,meteohub,2013-03-22 01:02:00,
2013-03-22 02:17:00,29.1,22.5,28.32,NW,315,5.0,9.0,76,-99.99,,,-99.99,meteohub,2013-03-22 01:17:00,
2013-03-22 02:32:00,29.1,22.8,28.31,NW,315,10.0,10.0,77,-99.99,,,-99.99,meteohub,2013-03-22 01:32:00,
2013-03-22 02:47:00,29.3,23.0,28.31,West,270,6.0,10.0,77,-99.99,,,-99.99,meteohub,2013-03-22 01:47:00,
2013-03-22 03:02:00,29.3,23.0,28.31,West,270,9.0,11.0,77,-99.99,,,-99.99,meteohub,2013-03-22 02:02:00,
2013-03-22 03:17:00,28.9,22.6,28.31,North,0,5.0,9.0,77,-99.99,,,-99.99,meteohub,2013-03-22 02:17:00,
2013-03-22 03:32:00,28.9,23.0,28.31,NW,315,5.0,7.0,78,-99.99,,,-99.99,meteohub,2013-03-22 02:32:00,
2013-03-22 03:47:00,28.6,22.3,28.31,NW,315,7.0,7.0,77,-99.99,,,-99.99,meteohub,2013-03-22 02:47:00,
2013-03-22 04:02:00,28.8,22.8,28.31,NNW,338,5.0,9.0,78,-99.99,,,-99.99,meteohub,2013-03-22 03:02:00,
2013-03-22 04:17:00,28.9,23.2,28.31,NW,315,10.0,11.0,79,-99.99,,,-99.99,meteohub,2013-03-22 03:17:00,
2013-03-22 04:32:00,28.9,23.9,28.30,NW,315,6.0,10.0,81,-99.99,,,-99.99,meteohub,2013-03-22 03:32:00,
2013-03-22 04:47:00,28.9,24.1,28.30,WNW,293,10.0,11.0,82,-99.99,,,-99.99,meteohub,2013-03-22 03:47:00,
2013-03-22 05:02:00,28.9,23.9,28.30,NNW,338,9.0,10.0,81,-99.99,,,-99.99,meteohub,2013-03-22 04:02:00,
2013-03-22 05:17:00,28.9,23.2,28.30,NNW,338,9.0,11.0,79,-99.99,,,-99.99,meteohub,2013-03-22 04:17:00,
2013-03-22 05:32:00,28.9,23.0,28.30,NNW,338,9.0,10.0,78,-99.99,,,-99.99,meteohub,2013-03-22 04:32:00,
2013-03-22 05:47:00,28.6,23.2,28.30,NW,315,10.0,14.0,80,-99.99,,,-99.99,meteohub,2013-03-22 04:47:00,
2013-03-22 06:02:00,28.4,23.5,28.30,North,0,11.0,13.0,82,-99.99,,,-99.99,meteohub,2013-03-22 05:02:00,
2013-03-22 06:17:00,28.4,23.5,28.30,NW,315,5.0,11.0,82,-99.99,,,-99.99,meteohub,2013-03-22 05:17:00,
2013-03-22 06:32:00,28.2,23.4,28.31,NNW,338,7.0,7.0,82,-99.99,,,-99.99,meteohub,2013-03-22 05:32:00,
2013-03-22 06:47:00,28.2,23.4,28.31,North,0,8.0,11.0,82,-99.99,,,-99.99,meteohub,2013-03-22 05:47:00,
2013-03-22 07:02:00,28.2,23.4,28.31,NNW,338,6.0,9.0,82,-99.99,,,-99.99,meteohub,2013-03-22 06:02:00,
2013-03-22 07:17:00,28.2,23.4,28.31,NW,315,4.0,6.0,82,-99.99,,,-99.99,meteohub,2013-03-22 06:17:00,
2013-03-22 07:32:00,29.3,24.3,28.31,NW,315,5.0,5.0,81,-99.99,,,-99.99,meteohub,2013-03-22 06:32:00,
2013-03-22 07:47:00,30.4,24.3,28.32,NNW,338,6.0,13.0,78,-99.99,,,-99.99,meteohub,2013-03-22 06:47:00,
2013-03-22 08:02:00,30.7,24.4,28.32,North,0,7.0,10.0,77,-99.99,,,-99.99,meteohub,2013-03-22 07:02:00,
2013-03-22 08:17:00,31.8,25.2,28.32,NW,315,6.0,12.0,76,-99.99,,,-99.99,meteohub,2013-03-22 07:17:00,
2013-03-22 08:32:00,30.7,23.7,28.33,NNE,23,10.0,11.0,75,-99.99,,,-99.99,meteohub,2013-03-22 07:32:00,
2013-03-22 08:47:00,31.1,23.7,28.34,NNW,338,9.0,11.0,74,-99.99,,,-99.99,meteohub,2013-03-22 07:47:00,
2013-03-22 09:02:00,31.1,23.7,28.34,NNE,23,7.0,12.0,74,-99.99,,,-99.99,meteohub,2013-03-22 08:02:00,
2013-03-22 09:17:00,31.1,24.1,28.35,NNW,338,4.0,12.0,75,-99.99,,,-99.99,meteohub,2013-03-22 08:17:00,
2013-03-22 09:32:00,31.3,23.7,28.35,NNW,338,6.0,10.0,73,-99.99,,,-99.99,meteohub,2013-03-22 08:32:00,
2013-03-22 09:47:00,30.9,23.5,28.35,NNE,23,9.0,11.0,74,-99.99,,,-99.99,meteohub,2013-03-22 08:47:00,
2013-03-22 10:02:00,31.5,24.1,28.35,NNE,23,8.0,9.0,74,-99.99,,,-99.99,meteohub,2013-03-22 09:02:00,
2013-03-22 10:17:00,31.8,24.1,28.36,NNW,338,10.0,10.0,73,-99.99,,,-99.99,meteohub,2013-03-22 09:17:00,
2013-03-22 10:32:00,31.8,24.1,28.36,NNE,23,9.0,13.0,73,-99.99,,,-99.99,meteohub,2013-03-22 09:32:00,
2013-03-22 10:47:00,31.1,22.8,28.36,NNW,338,10.0,12.0,71,-99.99,,,-99.99,meteohub,2013-03-22 09:47:00,
2013-03-22 11:02:00,31.3,23.4,28.36,NW,315,7.0,10.0,72,-99.99,,,-99.99,meteohub,2013-03-22 10:02:00,
2013-03-22 11:17:00,31.5,23.5,28.36,NW,315,7.0,10.0,72,-99.99,,,-99.99,meteohub,2013-03-22 10:17:00,
2013-03-22 11:32:00,31.8,23.2,28.36,NNE,23,4.0,11.0,70,-99.99,,,-99.99,meteohub,2013-03-22 10:32:00,
2013-03-22 11:47:00,32.2,23.5,28.36,ENE,68,6.0,11.0,70,-99.99,,,-99.99,meteohub,2013-03-22 10:47:00,
2013-03-22 12:02:00,32.9,24.3,28.36,NNE,23,7.0,8.0,70,-99.99,,,-99.99,meteohub,2013-03-22 11:02:00,
2013-03-22 12:17:00,33.4,24.4,28.38,NNW,338,5.0,7.0,69,-99.99,,,-99.99,meteohub,2013-03-22 11:17:00,
2013-03-22 12:32:00,33.1,23.7,28.38,NW,315,8.0,9.0,68,-99.99,,,-99.99,meteohub,2013-03-22 11:32:00,
2013-03-22 12:47:00,32.7,24.1,28.38,NNE,23,7.0,10.0,70,-99.99,,,-99.99,meteohub,2013-03-22 11:47:00,
2013-03-22 13:02:00,32.5,23.9,28.38,NNW,338,7.0,7.0,70,-99.99,,,-99.99,meteohub,2013-03-22 12:02:00,
2013-03-22 13:17:00,33.3,24.3,28.38,North,0,4.0,10.0,69,-99.99,,,-99.99,meteohub,2013-03-22 12:17:00,
2013-03-22 13:32:00,34.3,24.4,28.38,NNW,338,8.0,10.0,67,-99.99,,,-99.99,meteohub,2013-03-22 12:32:00,
2013-03-22 13:47:00,33.1,23.0,28.38,NNW,338,5.0,11.0,66,-99.99,,,-99.99,meteohub,2013-03-22 12:47:00,
2013-03-22 14:02:00,32.7,23.4,28.38,NW,315,9.0,11.0,68,-99.99,,,-99.99,meteohub,2013-03-22 13:02:00,
2013-03-22 14:17:00,32.7,23.4,28.37,NNE,23,8.0,9.0,68,-99.99,,,-99.99,meteohub,2013-03-22 13:17:00,
2013-03-22 14:32:00,32.7,24.1,28.37,NNW,338,8.0,11.0,70,-99.99,,,-99.99,meteohub,2013-03-22 13:32:00,
2013-03-22 14:47:00,32.5,24.3,28.38,NNE,23,13.0,13.0,71,-99.99,,,-99.99,meteohub,2013-03-22 13:47:00,
2013-03-22 15:02:00,32.2,24.4,28.38,North,0,8.0,13.0,73,-99.99,,,-99.99,meteohub,2013-03-22 14:02:00,
2013-03-22 15:17:00,32.5,25.2,28.37,NNE,23,6.0,13.0,74,-99.99,,,-99.99,meteohub,2013-03-22 14:17:00,
2013-03-22 15:32:00,32.5,25.5,28.38,NNW,338,4.0,11.0,75,-99.99,,,-99.99,meteohub,2013-03-22 14:32:00,
2013-03-22 15:47:00,32.2,25.5,28.37,NW,315,6.0,11.0,76,-99.99,,,-99.99,meteohub,2013-03-22 14:47:00,
2013-03-22 16:02:00,32.2,25.5,28.37,North,0,7.0,9.0,76,-99.99,,,-99.99,meteohub,2013-03-22 15:02:00,
2013-03-22 16:17:00,31.8,24.4,28.38,ESE,113,5.0,8.0,74,-99.99,,,-99.99,meteohub,2013-03-22 15:17:00,
2013-03-22 16:32:00,31.8,24.4,28.38,East,90,6.0,9.0,74,-99.99,,,-99.99,meteohub,2013-03-22 15:32:00,
2013-03-22 16:47:00,31.8,24.4,28.38,NW,315,7.0,9.0,74,-99.99,,,-99.99,meteohub,2013-03-22 15:47:00,
2013-03-22 17:02:00,31.5,24.8,28.38,NNW,338,8.0,13.0,76,-99.99,,,-99.99,meteohub,2013-03-22 16:02:00,
2013-03-22 17:17:00,31.5,24.8,28.38,East,90,10.0,10.0,76,-99.99,,,-99.99,meteohub,2013-03-22 16:17:00,
2013-03-22 17:32:00,31.1,25.0,28.37,ENE,68,9.0,11.0,78,-99.99,,,-99.99,meteohub,2013-03-22 16:32:00,
2013-03-22 17:47:00,31.1,25.3,28.38,NNE,23,4.0,9.0,79,-99.99,,,-99.99,meteohub,2013-03-22 16:47:00,
2013-03-22 18:02:00,30.7,25.3,28.38,NNE,23,4.0,9.0,80,-99.99,,,-99.99,meteohub,2013-03-22 17:02:00,
2013-03-22 18:17:00,30.4,25.3,28.38,NE,45,3.0,11.0,81,-99.99,,,-99.99,meteohub,2013-03-22 17:17:00,
2013-03-22 18:32:00,30.0,24.6,28.37,NNE,23,6.0,11.0,80,-99.99,,,-99.99,meteohub,2013-03-22 17:32:00,
2013-03-22 18:47:00,30.0,24.1,28.38,NE,45,9.0,12.0,78,-99.99,,,-99.99,meteohub,2013-03-22 17:47:00,
2013-03-22 19:02:00,29.7,24.3,28.38,NNE,23,6.0,12.0,80,-99.99,,,-99.99,meteohub,2013-03-22 18:02:00,
2013-03-22 19:17:00,29.7,23.9,28.38,NNW,338,8.0,10.0,79,-99.99,,,-99.99,meteohub,2013-03-22 18:17:00,
2013-03-22 19:32:00,29.5,23.5,28.38,NNW,338,5.0,10.0,78,-99.99,,,-99.99,meteohub,2013-03-22 18:32:00,
2013-03-22 19:47:00,29.3,22.3,28.40,ENE,68,6.0,13.0,75,-99.99,,,-99.99,meteohub,2013-03-22 18:47:00,
2013-03-22 20:02:00,29.3,22.1,28.40,NE,45,9.0,15.0,74,-99.99,,,-99.99,meteohub,2013-03-22 19:02:00,
2013-03-22 20:17:00,29.1,22.3,28.38,ENE,68,6.0,9.0,75,-99.99,,,-99.99,meteohub,2013-03-22 19:17:00,
2013-03-22 20:32:00,29.1,21.9,28.39,NNW,338,4.0,9.0,74,-99.99,,,-99.99,meteohub,2013-03-22 19:32:00,
2013-03-22 20:47:00,28.9,21.7,28.38,NNE,23,10.0,12.0,74,-99.99,,,-99.99,meteohub,2013-03-22 19:47:00,
2013-03-22 21:02:00,28.9,22.3,28.38,NE,45,7.0,11.0,76,-99.99,,,-99.99,meteohub,2013-03-22 20:02:00,
2013-03-22 21:17:00,28.9,22.6,28.38,NNE,23,7.0,11.0,77,-99.99,,,-99.99,meteohub,2013-03-22 20:17:00,
2013-03-22 21:32:00,28.9,23.0,28.37,NNE,23,9.0,9.0,78,-99.99,,,-99.99,meteohub,2013-03-22 20:32:00,
2013-03-22 21:47:00,28.9,23.0,28.37,NNW,338,4.0,9.0,78,-99.99,,,-99.99,meteohub,2013-03-22 20:47:00,
2013-03-22 22:02:00,28.9,23.2,28.37,North,0,4.0,6.0,79,-99.99,,,-99.99,meteohub,2013-03-22 21:02:00,
2013-03-22 22:17:00,28.9,23.2,28.38,NNE,23,4.0,5.0,79,-99.99,,,-99.99,meteohub,2013-03-22 21:17:00,
2013-03-22 22:32:00,28.9,23.2,28.37,NE,45,6.0,6.0,79,-99.99,,,-99.99,meteohub,2013-03-22 21:32:00,
2013-03-22 22:47:00,28.6,23.2,28.37,NE,45,6.0,7.0,80,-99.99,,,-99.99,meteohub,2013-03-22 21:47:00,
2013-03-22 23:02:00,28.6,23.2,28.37,NE,45,7.0,8.0,80,-99.99,,,-99.99,meteohub,2013-03-22 22:02:00,
2013-03-22 23:17:00,28.6,23.5,28.37,NW,315,3.0,8.0,81,-99.99,,,-99.99,meteohub,2013-03-22 22:17:00,
2013-03-22 23:32:00,28.6,23.5,28.36,ENE,68,3.0,6.0,81,-99.99,,,-99.99,meteohub,2013-03-22 22:32:00,
2013-03-22 23:47:00,28.6,23.5,28.36,NE,45,4.0,7.0,81,-99.99,,,-99.99,meteohub,2013-03-22 22:47:00,